FIE354 LOWI-UDYZ

Flight info

Callsign FIE354
Flight time N/A
Altitude 35000
Route RTT DCT KLAGY DCT BEDOX DCT PEROT DCT DIRER DCT BULEN L744 EXIGA/N0448F370 L744 UDROS UM859 KARDE UL851 TBN UP146 YAVUZ UB374 INDUR
Aircraft A320/M-SDE3FGHIRWY/LB1

Departure

Time N/A
Airport Innsbruck Airport (LOWI)

Arrival

Time 2026-05-08 11:04
Airport Zvartnots International Airport (UDYZ)
Time Latitude Longitude Altitude Speed Heading
2026-05-08 09:53 46.68004 14.33573 35109 ft 480 kts 115°
2026-05-08 09:54 46.65559 14.42633 35110 ft 481 kts 115°
2026-05-08 09:54 46.60877 14.59915 35109 ft 481 kts 115°
2026-05-08 09:55 46.56223 14.76983 35119 ft 481 kts 115°
2026-05-08 09:55 46.51303 14.94865 35109 ft 482 kts 116°
2026-05-08 09:56 46.46550 15.12018 35111 ft 483 kts 116°
2026-05-08 09:56 46.41540 15.29955 35117 ft 483 kts 116°
2026-05-08 09:57 46.33922 15.56952 35106 ft 483 kts 116°
2026-05-08 09:57 46.28810 15.74928 35116 ft 483 kts 116°
2026-05-08 09:58 46.23846 15.92973 35125 ft 484 kts 113°
2026-05-08 09:58 46.19329 16.11266 35117 ft 483 kts 114°
2026-05-08 09:59 46.14625 16.29406 35111 ft 483 kts 114°
2026-05-08 09:59 46.09903 16.47555 35111 ft 483 kts 114°
2026-05-08 10:00 46.05155 16.65681 35110 ft 484 kts 114°
2026-05-08 10:00 46.00384 16.83797 35106 ft 485 kts 114°
2026-05-08 10:01 45.95567 17.01874 35127 ft 483 kts 114°
2026-05-08 10:01 45.90743 17.19870 35122 ft 482 kts 115°
2026-05-08 10:02 45.85943 17.37656 35114 ft 481 kts 115°
2026-05-08 10:02 45.81074 17.55540 35102 ft 482 kts 115°
2026-05-08 10:03 45.76171 17.73439 35110 ft 482 kts 115°
2026-05-08 10:03 45.71229 17.91311 35112 ft 483 kts 115°
2026-05-08 10:04 45.66261 18.09176 35114 ft 483 kts 115°
2026-05-08 10:04 45.61270 18.27028 35113 ft 483 kts 115°
2026-05-08 10:05 45.56245 18.44807 35108 ft 482 kts 115°
2026-05-08 10:05 45.51193 18.62531 35101 ft 482 kts 115°
2026-05-08 10:06 45.46141 18.80213 35087 ft 481 kts 116°
2026-05-08 10:06 45.38466 19.11258 35091 ft 484 kts 105°
2026-05-08 10:07 45.32362 19.48631 35069 ft 485 kts 106°
2026-05-08 10:07 45.26117 19.85986 35078 ft 487 kts 106°
2026-05-08 10:08 45.19767 20.23359 35088 ft 487 kts 107°
2026-05-08 10:08 45.13288 20.60624 35097 ft 486 kts 107°
2026-05-08 10:09 45.06705 20.97712 35080 ft 485 kts 107°
2026-05-08 10:09 45.00034 21.34392 35096 ft 485 kts 108°
2026-05-08 10:10 44.91322 21.70185 35078 ft 482 kts 114°
2026-05-08 10:10 44.82049 22.05607 36069 ft 479 kts 114°
2026-05-08 10:11 44.77397 22.23182 37073 ft 480 kts 114°
2026-05-08 10:11 44.72719 22.40760 37150 ft 470 kts 114°
2026-05-08 10:11 44.68063 22.58115 36946 ft 479 kts 114°
2026-05-08 10:11 44.63433 22.75308 37092 ft 469 kts 114°
2026-05-08 10:12 44.54070 23.09589 37012 ft 476 kts 114°
2026-05-08 10:12 44.44612 23.43771 37162 ft 465 kts 114°
2026-05-08 10:13 44.39844 23.60807 37107 ft 476 kts 114°
2026-05-08 10:13 44.35022 23.77958 37010 ft 476 kts 114°
2026-05-08 10:13 44.25208 24.12366 37109 ft 479 kts 114°
2026-05-08 10:14 44.15288 24.46738 37105 ft 477 kts 114°
2026-05-08 10:14 44.05300 24.80883 37095 ft 476 kts 115°
2026-05-08 10:15 43.95227 25.14849 37076 ft 475 kts 115°
2026-05-08 10:15 43.85042 25.48731 37083 ft 476 kts 115°
2026-05-08 10:16 43.74758 25.82483 37084 ft 475 kts 114°
2026-05-08 10:16 43.67593 26.11223 37079 ft 475 kts 111°
2026-05-08 10:17 43.58779 26.45617 37070 ft 475 kts 111°
2026-05-08 10:17 43.49857 26.80013 37068 ft 477 kts 111°
2026-05-08 10:18 43.40918 27.14488 37076 ft 479 kts 110°
2026-05-08 10:18 43.31842 27.48970 37094 ft 480 kts 110°
2026-05-08 10:19 43.22770 27.83432 37069 ft 481 kts 103°
2026-05-08 10:20 43.13569 28.36454 37101 ft 479 kts 103°
2026-05-08 10:20 43.07361 28.71179 37103 ft 478 kts 103°
2026-05-08 10:21 43.01319 29.06271 37108 ft 477 kts 102°
2026-05-08 10:21 42.95214 29.41542 37114 ft 477 kts 103°
2026-05-08 10:22 42.88977 29.76765 37122 ft 477 kts 103°
2026-05-08 10:22 42.82665 30.11872 37123 ft 477 kts 103°
2026-05-08 10:23 42.76268 30.46825 37135 ft 475 kts 103°
2026-05-08 10:23 42.71619 30.82051 37146 ft 473 kts 96°
2026-05-08 10:24 42.67958 31.17376 37147 ft 471 kts 96°
2026-05-08 10:24 42.64213 31.52497 37151 ft 469 kts 96°
2026-05-08 10:25 42.60365 31.87541 37151 ft 469 kts 97°
2026-05-08 10:25 42.56407 32.22590 37177 ft 470 kts 97°
2026-05-08 10:26 42.52325 32.57486 37177 ft 468 kts 97°
2026-05-08 10:26 42.48202 32.91988 37195 ft 466 kts 97°
2026-05-08 10:27 42.43973 33.26481 37203 ft 463 kts 97°
2026-05-08 10:27 42.39660 33.60746 37214 ft 460 kts 97°
2026-05-08 10:28 42.35253 33.94802 37219 ft 459 kts 97°
2026-05-08 10:28 42.30791 34.28772 37232 ft 458 kts 97°
2026-05-08 10:29 42.26218 34.62629 37243 ft 458 kts 98°
2026-05-08 10:29 42.21531 34.96440 37232 ft 457 kts 98°
2026-05-08 10:30 42.16764 35.30040 37244 ft 455 kts 98°
2026-05-08 10:30 42.11935 35.63503 37238 ft 454 kts 99°
2026-05-08 10:31 42.07009 35.96836 37228 ft 454 kts 99°
2026-05-08 10:31 42.01985 36.30096 37205 ft 454 kts 99°
2026-05-08 10:32 41.96873 36.63293 37183 ft 453 kts 99°
2026-05-08 10:32 41.91665 36.96465 37193 ft 454 kts 100°
2026-05-08 10:32 41.87820 37.12568 37200 ft 456 kts 111°
2026-05-08 10:33 41.82924 37.28269 37199 ft 456 kts 110°
2026-05-08 10:33 41.72997 37.59516 37203 ft 455 kts 111°
2026-05-08 10:34 41.63022 37.90614 37210 ft 454 kts 111°
2026-05-08 10:34 41.53033 38.21375 37213 ft 454 kts 111°
2026-05-08 10:35 41.42889 38.52247 37216 ft 455 kts 111°
2026-05-08 10:35 41.32634 38.83128 37219 ft 456 kts 111°
2026-05-08 10:36 41.22502 39.14063 37221 ft 457 kts 112°
2026-05-08 10:36 41.11841 39.44694 37225 ft 458 kts 113°
2026-05-08 10:37 41.01043 39.75273 37229 ft 458 kts 114°
2026-05-08 10:37 40.90409 40.05991 37231 ft 460 kts 114°
2026-05-08 10:38 40.79660 40.36718 37223 ft 462 kts 114°
2026-05-08 10:38 40.68779 40.67524 37231 ft 464 kts 115°
2026-05-08 10:39 40.57831 40.98254 37245 ft 464 kts 115°
2026-05-08 10:39 40.46762 41.28910 37245 ft 465 kts 116°
2026-05-08 10:40 40.35598 41.59547 37232 ft 466 kts 116°
2026-05-08 10:40 40.24297 41.90207 37249 ft 469 kts 117°
2026-05-08 10:41 40.14136 42.17537 37237 ft 469 kts 117°
2026-05-08 10:41 40.11273 42.25191 37234 ft 469 kts 117°
2026-05-08 10:42 40.08396 42.32839 37247 ft 469 kts 117°
2026-05-08 10:42 40.05773 42.40573 37251 ft 470 kts 108°
2026-05-08 10:43 40.04847 42.49010 37247 ft 472 kts 89°
2026-05-08 10:43 40.05341 42.57544 37236 ft 472 kts 85°
2026-05-08 10:44 40.05867 42.66080 37234 ft 472 kts 86°
2026-05-08 10:44 40.06376 42.74625 37236 ft 472 kts 86°
2026-05-08 10:45 40.07287 42.89927 36662 ft 471 kts 86°
2026-05-08 10:45 40.07789 42.98444 36169 ft 471 kts 86°
2026-05-08 10:45 40.08288 43.06980 35672 ft 472 kts 86°
2026-05-08 10:45 40.08781 43.15569 35138 ft 476 kts 86°
2026-05-08 10:46 40.09278 43.24310 33380 ft 488 kts 87°
2026-05-08 10:46 40.09773 43.33225 31413 ft 497 kts 86°
2026-05-08 10:46 40.10125 43.39633 30430 ft 492 kts 86°
2026-05-08 10:46 40.10368 43.44083 29591 ft 491 kts 86°
2026-05-08 10:47 40.10608 43.48519 28835 ft 487 kts 86°
2026-05-08 10:47 40.10840 43.52855 28659 ft 471 kts 86°
2026-05-08 10:47 40.11065 43.57053 28519 ft 455 kts 86°
2026-05-08 10:47 40.11280 43.61103 28397 ft 440 kts 86°
2026-05-08 10:48 40.11484 43.65022 28276 ft 426 kts 88°
2026-05-08 10:48 40.11385 43.68824 28142 ft 412 kts 97°
2026-05-08 10:48 40.11093 43.72496 27973 ft 402 kts 97°
2026-05-08 10:48 40.10812 43.76101 27643 ft 398 kts 97°
2026-05-08 10:49 40.10537 43.79680 27261 ft 394 kts 97°
2026-05-08 10:49 40.10262 43.83229 26854 ft 392 kts 97°
2026-05-08 10:49 40.09987 43.86760 26455 ft 389 kts 97°
2026-05-08 10:49 40.09713 43.90262 26053 ft 386 kts 97°
2026-05-08 10:50 40.09438 43.93740 25655 ft 384 kts 97°
2026-05-08 10:50 40.09162 43.97197 25254 ft 381 kts 97°
2026-05-08 10:50 40.08887 44.00608 24712 ft 374 kts 97°
2026-05-08 10:50 40.08616 44.03971 23962 ft 371 kts 97°
2026-05-08 10:51 40.08347 44.07301 23210 ft 367 kts 97°
2026-05-08 10:51 40.08080 44.10602 22459 ft 364 kts 97°
2026-05-08 10:51 40.07814 44.13877 21698 ft 361 kts 97°
2026-05-08 10:51 40.07550 44.17130 20953 ft 359 kts 97°
2026-05-08 10:52 40.07290 44.20312 20210 ft 355 kts 97°
2026-05-08 10:52 40.07030 44.23500 19459 ft 352 kts 97°
2026-05-08 10:52 40.06769 44.26706 18699 ft 349 kts 97°
2026-05-08 10:52 40.06513 44.29838 17948 ft 346 kts 97°
2026-05-08 10:53 40.06255 44.32947 17385 ft 342 kts 97°
2026-05-08 10:53 40.06000 44.36006 17116 ft 336 kts 97°
2026-05-08 10:53 40.05752 44.38984 16778 ft 333 kts 97°
2026-05-08 10:53 40.05505 44.41977 16420 ft 331 kts 97°
2026-05-08 10:54 40.05255 44.44954 16060 ft 329 kts 97°
2026-05-08 10:54 40.05004 44.47917 15691 ft 327 kts 97°
2026-05-08 10:54 40.04756 44.50857 15336 ft 325 kts 97°
2026-05-08 10:54 40.04512 44.53792 14969 ft 326 kts 97°
2026-05-08 10:55 40.04267 44.56727 14665 ft 325 kts 96°
2026-05-08 10:55 40.04015 44.59634 14432 ft 320 kts 97°
2026-05-08 10:55 40.03768 44.62498 14179 ft 315 kts 97°
2026-05-08 10:55 40.03528 44.65332 13623 ft 320 kts 97°
2026-05-08 10:56 40.03310 44.68236 12790 ft 322 kts 94°
2026-05-08 10:56 40.03235 44.71100 12546 ft 306 kts 91°
2026-05-08 10:56 40.03247 44.73781 12437 ft 285 kts 89°
2026-05-08 10:56 40.03282 44.76285 12334 ft 267 kts 89°
2026-05-08 10:57 40.03511 44.78619 12205 ft 257 kts 67°
2026-05-08 10:57 40.04602 44.80393 11881 ft 255 kts 29°
2026-05-08 10:57 40.08000 44.80535 11157 ft 255 kts 346°
2026-05-08 10:58 40.09689 44.79807 10733 ft 257 kts 326°
2026-05-08 10:58 40.11056 44.78286 10340 ft 260 kts 319°
2026-05-08 10:58 40.12635 44.77060 9883 ft 267 kts 333°
2026-05-08 10:58 40.14137 44.75710 9429 ft 262 kts 308°
2026-05-08 10:59 40.14833 44.73577 8925 ft 261 kts 274°
2026-05-08 10:59 40.14703 44.71214 8555 ft 260 kts 264°
2026-05-08 10:59 40.14624 44.68835 8216 ft 261 kts 269°
2026-05-08 10:59 40.14657 44.66479 7765 ft 258 kts 271°
2026-05-08 11:00 40.14712 44.64139 7131 ft 256 kts 271°
2026-05-08 11:00 40.14750 44.61843 6660 ft 249 kts 270°
2026-05-08 11:00 40.14770 44.59657 6258 ft 239 kts 270°
2026-05-08 11:00 40.14780 44.57525 5841 ft 231 kts 270°
2026-05-08 11:01 40.14783 44.55456 5466 ft 223 kts 270°
2026-05-08 11:01 40.14780 44.53483 5109 ft 207 kts 270°
2026-05-08 11:01 40.14756 44.51666 4799 ft 193 kts 269°
2026-05-08 11:01 40.14730 44.50005 4562 ft 174 kts 270°
2026-05-08 11:02 40.14729 44.48500 4320 ft 159 kts 271°
2026-05-08 11:02 40.14753 44.45748 3842 ft 147 kts 272°
2026-05-08 11:02 40.14750 44.44413 3556 ft 147 kts 271°
2026-05-08 11:03 40.14740 44.43081 3176 ft 145 kts 271°
2026-05-08 11:03 40.14744 44.41765 2881 ft 144 kts 271°
2026-05-08 11:03 40.14740 44.40553 2839 ft 115 kts 270°
2026-05-08 11:03 40.14735 44.39733 2833 ft 66 kts 269°
2026-05-08 11:04 40.14731 44.39198 2829 ft 55 kts 270°
2026-05-08 11:04 40.14728 44.38731 2830 ft 48 kts 270°
2026-05-08 11:04 40.14727 44.38482 2830 ft 18 kts 269°
2026-05-08 11:04 40.14758 44.38375 2830 ft 11 kts 341°
2026-05-08 11:05 40.14820 44.38370 2833 ft 6 kts 358°
2026-05-08 11:05 40.14866 44.38369 2835 ft 9 kts 359°
2026-05-08 11:05 40.14933 44.38378 2836 ft 10 kts 19°
2026-05-08 11:05 40.14976 44.38458 2837 ft 14 kts 82°
2026-05-08 11:06 40.14977 44.38605 2837 ft 22 kts 89°
2026-05-08 11:06 40.14979 44.38817 2837 ft 23 kts 90°
2026-05-08 11:06 40.14979 44.38956 2837 ft 23 kts 90°
2026-05-08 11:06 40.14979 44.39165 2837 ft 23 kts 89°
2026-05-08 11:07 40.14981 44.39371 2837 ft 23 kts 88°
2026-05-08 11:07 40.14984 44.39575 2837 ft 22 kts 89°
2026-05-08 11:07 40.14983 44.39776 2837 ft 22 kts 89°
2026-05-08 11:07 40.14992 44.39839 2836 ft 4 kts 57°
2026-05-08 11:08 40.15027 44.39864 2836 ft 7 kts
2026-05-08 11:08 40.15076 44.39865 2837 ft 7 kts
2026-05-08 11:08 40.15094 44.39864 2836 ft 0 kts 359°